Location: Gazon
(48.1318°N, 1.2708°W)
Time: 22:59:20
(UTC+00:00)

Cosmos 1805 - Pass Details

Date: 18 September 2020
Orbit: 524 x 531 km, 82.5° (Epoch: 25 October)

Event Time Altitude Azimuth Distance (km) Brightness Sun altitude
Exits shadow 20:35:44 58° 3° (N) 624 3.6 -23.8°
Drops below altitude 10° 20:38:58 10° 9° (N) 1,793 6.2 -24.2°
Sets 20:41:08 0° 10° (N) 2,689 7.1 -24.5°
